[[{"header":{"parameterUnit":"m.s-1","parameterCategory":1,"la1":30.2991,"la2":30.254,"lo1":-89.0895,"lo2":-89.0444,"dy":0.0017,"dx":0.0017,"nx":28,"ny":28,"refTime":"2025-01-19T03:00:00:Z","depth":0,"parameterNumber":2,"parameterNumberName":"U-component_of_WINDS"},"data":[0,0,0,0,0,0,0,0,0,0,0,0,0,0,0,0,0,0,0,0,0,0,0,0,0,0,0,0,0,0,0,0,0,0,0,0,0,0,0,0,0,0,0,0,0,0,0,0,0,0,0,0,0,0,0,0,0,0,-2.1945,-2.1946,0,-2.2018,-2.2019,-2.202,-2.1951,-2.1948,-2.1945,-2.1942,-2.202,-2.2024,-2.2029,0,0,0,0,0,0,0,0,0,0,0,0,0,-2.1745,-2.1749,-2.1945,-2.1946,-2.1947,-2.2018,-2.2019,-2.202,-2.1951,-2.1948,-2.1944,-2.1941,-2.2018,-2.2024,-2.2029,0,0,0,0,0,0,0,0,0,0,0,0,0,-2.1827,-2.175,-2.1945,-2.1921,-2.1919,-2.2018,-2.2019,-2.202,-2.1952,-2.1948,-2.1943,-2.194,-2.2017,-2.2023,-2.203,-2.2157,0,0,-2.2052,-2.2055,0,0,0,0,0,0,0,0,-2.1822,-2.1834,-2.1923,-2.1923,-2.1921,-2.1971,-2.1977,-2.2066,-2.1953,-2.194,-2.1942,-2.1938,-2.2007,-2.2015,-2.2038,-2.2161,-2.2164,-2.2052,-2.2056,-2.2059,-2.2061,0,0,0,0,0,0,0,-2.1817,-2.183,-2.1974,-2.1925,-2.1923,-2.1906,-2.1913,-2.1994,-2.1996,-2.194,-2.1936,-2.1945,-2.2006,-2.2031,-2.2039,-2.2165,-2.2052,-2.2058,-2.2063,-2.2065,-2.2394,-2.2398,0,0,0,0,0,0,-2.1813,-2.1826,-2.1972,-2.1976,-2.186,-2.1913,-2.1921,-2.1959,-2.1995,-2.1996,-2.1949,-2.1942,-2.2021,-2.2031,-2.2041,-2.2192,-2.2059,-2.2066,-2.207,-2.239,-2.2395,-2.24,0,0,0,0,0,0,-2.1809,-2.1827,-2.1969,-2.19,-2.1917,-2.1921,-2.1965,-2.1963,-2.1988,-2.2001,-2.2001,-2.1974,-2.2018,-2.2032,-2.2128,-2.2194,-2.2069,-2.2075,-2.2384,-2.2391,-2.2398,-2.2494,0,0,0,0,0,0,-2.1804,-2.1826,-2.1874,-2.1901,-2.1921,-2.2055,-2.1969,-2.1967,-2.2,-2.1992,-2.2025,-2.2027,-2.2016,-2.2118,-2.2135,-2.2201,-2.2081,-2.2379,-2.2387,-2.2395,-2.2486,-2.2504,-2.2519,0,0,0,0,0,-2.1797,-2.1899,-2.1877,-2.1895,-2.1981,-2.2059,-2.2069,-2.2055,-2.2006,-2.2054,-2.2062,-2.2025,-2.2183,-2.2129,-2.2147,-2.2216,-2.2374,-2.2385,-2.2395,-2.2478,-2.25,-2.2519,0,0,0,0,0,0,-2.1881,-2.1902,-2.1878,-2.1992,-2.2024,-2.2047,-2.2108,-2.2079,-2.2126,-2.2116,-2.2096,-2.2104,-2.2207,-2.2221,-2.216,-2.234,-2.2271,-2.2285,-2.2328,-2.2349,-2.2366,-2.2361,-2.2087,0,0,0,0,0,-2.1912,-2.1973,-2.1989,-2.2088,-2.2105,-2.2104,-2.2137,-2.2122,-2.2155,-2.2168,-2.2183,-2.2217,-2.2273,-2.2311,-2.2365,-2.2486,-2.2492,-2.2542,-2.2559,-2.2573,-2.2587,-2.2652,-2.2674,-2.2434,-2.2434,-2.2433,0,0,-2.1979,-2.1998,-2.2038,-2.2105,-2.2128,-2.2192,-2.2116,-2.2186,-2.2234,-2.2179,-2.2272,-2.2283,-2.2319,-2.2429,-2.2478,-2.2444,-2.2654,-2.2586,-2.2597,-2.2603,-2.2664,-2.2687,-2.2707,-2.2441,-2.2439,-2.2438,0,0,-2.2133,-2.2153,-2.2238,-2.2262,-2.2297,-2.2295,-2.2315,-2.2342,-2.2347,-2.2439,-2.2399,-2.2455,-2.2553,-2.258,-2.2607,-2.2768,-2.2736,-2.2785,-2.2875,-2.2939,-2.2958,-2.2974,-2.3032,-2.3053,-2.2798,-2.2799,-2.2799,0,-2.2212,-2.2306,-2.2285,-2.2359,-2.2389,-2.2341,-2.2427,-2.2451,-2.2502,-2.2525,-2.2485,-2.2606,-2.2627,-2.2742,-2.2781,-2.2804,-2.2827,-2.2783,-2.2956,-2.2973,-2.2988,-2.3043,-2.3065,-2.2804,-2.2804,-2.2803,-2.2803,0,-2.2401,-2.2466,-2.253,-2.258,-2.2617,-2.2697,-2.2688,-2.2729,-2.271,-2.2712,-2.2806,-2.2828,-2.2885,-2.291,-2.2894,-2.3023,-2.3,-2.2959,-2.289,-2.3017,-2.3069,-2.309,-2.2813,-2.2811,-2.2809,-2.2808,0,0,-2.2613,-2.2648,-2.2672,-2.2693,-2.2727,-2.2778,-2.2854,-2.2908,-2.2943,-2.2979,-2.3043,-2.3126,-2.3087,-2.3117,-2.3103,-2.3158,-2.3285,-2.3109,-2.311,-2.3142,-2.3429,-2.3461,-2.3486,-2.3262,-2.3266,-2.3269,-2.3426,0,-2.2768,-2.2901,-2.2884,-2.3011,-2.3072,-2.3025,-2.3091,-2.3119,-2.3123,-2.3174,-2.3177,-2.3237,-2.3181,-2.3199,-2.3251,-2.3258,-2.3342,-2.3246,-2.3323,-2.3325,-2.3317,-2.3513,-2.3548,-2.3695,-2.3446,-2.3449,-2.3452,0,-2.2969,-2.3011,-2.3144,-2.3167,-2.3192,-2.3252,-2.33,-2.3349,-2.3379,-2.3377,-2.341,-2.3385,-2.3461,-2.3388,-2.3493,-2.3428,-2.3457,-2.3465,-2.347,-2.3479,-2.3398,-2.3528,-2.3741,-2.3764,-2.3483,-2.3481,-2.3478,0,-2.3112,-2.3201,-2.3292,-2.3312,-2.3341,-2.3384,-2.3398,-2.3424,-2.3457,-2.3498,-2.352,-2.3569,-2.3597,-2.3636,-2.3625,-2.3573,-2.3733,-2.3659,-2.3734,-2.3735,-2.3772,-2.377,-2.3995,-2.3788,-2.3788,-2.3787,-2.3787,0,-2.3289,-2.3372,-2.3357,-2.3413,-2.3505,-2.3483,-2.3575,-2.3583,-2.3606,-2.3663,-2.3625,-2.368,-2.366,-2.3714,-2.3705,-2.3793,-2.3806,-2.3807,-2.3804,-2.3811,-2.3811,-2.3832,-2.3822,-2.3793,-2.3792,-2.3791,-2.379,0,-2.3465,-2.3458,-2.3554,-2.3573,-2.3579,-2.3646,-2.3662,-2.3715,-2.3714,-2.3786,-2.3802,-2.3801,-2.3861,-2.3853,-2.392,-2.3914,-2.4024,-2.4008,-2.4015,-2.4012,-2.4088,-2.4081,-2.4335,-2.4367,-2.4139,-2.4141,-2.4143,0,-2.358,-2.3643,-2.3667,-2.3702,-2.3719,-2.3776,-2.3809,-2.379,-2.3826,-2.3864,-2.3912,-2.3968,-2.4013,-2.4111,-2.4117,-2.4168,-2.4153,-2.4238,-2.4161,-2.4166,-2.4156,-2.4153,-2.4159,-2.4255,-2.4257,-2.426,-2.4261,0,-2.3784,-2.3777,-2.3826,-2.3873,-2.3914,-2.395,-2.3983,-2.4014,-2.3997,-2.4039,-2.41,-2.4134,-2.4202,-2.4259,-2.4306,-2.432,-2.4289,-2.4285,-2.4305,-2.4315,-2.4316,-2.4317,-2.4058,-2.428,-2.4278,-2.4277,-2.4276,-2.4275,-2.3934,-2.3988,-2.4013,-2.4069,-2.4091,-2.4122,-2.4172,-2.4176,-2.4226,-2.428,-2.4264,-2.4333,-2.436,-2.442,-2.4439,-2.4492,-2.4461,-2.4491,-2.4498,-2.4506,-2.4516,-2.4306,-2.4501,-2.45,-2.45,-2.4499,-2.4499,0,-2.4138,-2.4151,-2.4202,-2.4248,-2.4292,-2.4256,-2.429,-2.4329,-2.4389,-2.4416,-2.446,-2.4529,-2.4583,-2.4592,-2.4643,-2.4684,-2.4671,-2.4699,-2.4696,-2.47,-2.454,-2.4518,-2.4708,-2.4708,-2.4708,-2.4708,-2.4708,-2.4708,-2.4249,-2.4337,-2.4333,-2.4431,-2.4444,-2.4511,-2.4533,-2.4561,-2.4583,-2.4661,-2.4706,-2.471,-2.473,-2.4782,-2.483,-2.483,-2.4852,-2.4886,-2.4881,-2.4732,-2.4712,-2.4692,-2.4671,-2.489,-2.489,-2.5036,-2.5038,-2.5039]},{"header":{"parameterUnit":"m.s-1","parameterCategory":1,"la1":30.2991,"la2":30.254,"lo1":-89.0895,"lo2":-89.0444,"dy":0.0017,"dx":0.0017,"nx":28,"ny":28,"refTime":"2025-01-19T03:00:00:Z","depth":0,"parameterNumber":3,"parameterNumberName":"V-component_of_WINDS"},"data":[0,0,0,0,0,0,0,0,0,0,0,0,0,0,0,0,0,0,0,0,0,0,0,0,0,0,0,0,0,0,0,0,0,0,0,0,0,0,0,0,0,0,0,0,0,0,0,0,0,0,0,0,0,0,0,0,0,0,-7.1813,-7.1814,0,-7.1942,-7.1943,-7.1945,-7.1853,-7.1849,-7.1845,-7.1841,-7.1968,-7.1975,-7.1983,0,0,0,0,0,0,0,0,0,0,0,0,0,-7.1481,-7.1488,-7.1813,-7.1814,-7.1816,-7.1942,-7.1944,-7.1945,-7.1854,-7.1849,-7.1844,-7.1839,-7.1966,-7.1975,-7.1983,0,0,0,0,0,0,0,0,0,0,0,0,0,-7.1619,-7.149,-7.1813,-7.1786,-7.1785,-7.1941,-7.1944,-7.1946,-7.1855,-7.1849,-7.1843,-7.1837,-7.1963,-7.1974,-7.1984,-7.2173,0,0,-7.2017,-7.2022,0,0,0,0,0,0,0,0,-7.1611,-7.1631,-7.1788,-7.1788,-7.1787,-7.1875,-7.1873,-7.2022,-7.1857,-7.1828,-7.1841,-7.1834,-7.1942,-7.1954,-7.1992,-7.2179,-7.2184,-7.2018,-7.2025,-7.2029,-7.2032,0,0,0,0,0,0,0,-7.1602,-7.1625,-7.1864,-7.179,-7.179,-7.1765,-7.1778,-7.1901,-7.1918,-7.183,-7.1824,-7.1841,-7.194,-7.1982,-7.1994,-7.2186,-7.2018,-7.2027,-7.2034,-7.2038,-7.2532,-7.2538,0,0,0,0,0,0,-7.1596,-7.1618,-7.186,-7.1868,-7.1683,-7.1776,-7.1791,-7.1853,-7.1916,-7.192,-7.1846,-7.1836,-7.1966,-7.1981,-7.1998,-7.2222,-7.2029,-7.2039,-7.2046,-7.2526,-7.2534,-7.2541,0,0,0,0,0,0,-7.1589,-7.1618,-7.1854,-7.1741,-7.1769,-7.1788,-7.1859,-7.1859,-7.19,-7.1928,-7.193,-7.1885,-7.1962,-7.1983,-7.213,-7.2225,-7.2044,-7.2054,-7.2518,-7.2528,-7.2537,-7.2672,0,0,0,0,0,0,-7.158,-7.1616,-7.169,-7.1744,-7.1776,-7.1987,-7.1865,-7.1866,-7.1919,-7.1908,-7.1965,-7.1969,-7.1959,-7.2114,-7.2141,-7.2237,-7.2062,-7.2509,-7.2522,-7.2534,-7.2659,-7.2685,-7.2708,0,0,0,0,0,-7.1568,-7.1722,-7.1694,-7.1724,-7.1869,-7.1992,-7.2011,-7.1997,-7.1927,-7.2,-7.2018,-7.1967,-7.221,-7.213,-7.2159,-7.226,-7.2503,-7.2519,-7.2533,-7.2648,-7.268,-7.2707,0,0,0,0,0,0,-7.1677,-7.1729,-7.1698,-7.1874,-7.193,-7.1977,-7.2068,-7.2032,-7.2107,-7.2093,-7.2071,-7.2085,-7.2239,-7.2264,-7.2174,-7.2444,-7.2345,-7.2367,-7.2423,-7.2454,-7.2477,-7.2468,-7.2071,0,0,0,0,0,-7.1722,-7.1821,-7.1859,-7.201,-7.204,-7.205,-7.2103,-7.2088,-7.2144,-7.2167,-7.2195,-7.225,-7.2338,-7.2397,-7.248,-7.2662,-7.2672,-7.2745,-7.2769,-7.2789,-7.2808,-7.2904,-7.2936,-7.259,-7.259,-7.259,0,0,-7.1815,-7.1855,-7.1918,-7.2033,-7.2075,-7.2175,-7.207,-7.2181,-7.2254,-7.2183,-7.2324,-7.2347,-7.2406,-7.2571,-7.2645,-7.2596,-7.2905,-7.2808,-7.2824,-7.2832,-7.2922,-7.2955,-7.2984,-7.26,-7.2598,-7.2597,0,0,-7.2036,-7.2077,-7.2207,-7.2251,-7.2315,-7.232,-7.2351,-7.2404,-7.2417,-7.2558,-7.2506,-7.2592,-7.2746,-7.279,-7.2832,-7.3068,-7.3023,-7.3095,-7.3222,-7.3316,-7.3343,-7.3367,-7.345,-7.3481,-7.3114,-7.3114,-7.3115,0,-7.2144,-7.2294,-7.2278,-7.2393,-7.2444,-7.2385,-7.2515,-7.2558,-7.2645,-7.2681,-7.2625,-7.2816,-7.2852,-7.3025,-7.3083,-7.312,-7.3153,-7.3089,-7.3341,-7.3365,-7.3387,-7.3466,-7.3497,-7.3123,-7.3122,-7.3121,-7.312,0,-7.2422,-7.2527,-7.2624,-7.2712,-7.2774,-7.2896,-7.2896,-7.296,-7.2939,-7.295,-7.3093,-7.3134,-7.3223,-7.3263,-7.3244,-7.3434,-7.3401,-7.3344,-7.3244,-7.3429,-7.3502,-7.3533,-7.3134,-7.3132,-7.3129,-7.3127,0,0,-7.2717,-7.2793,-7.2829,-7.2867,-7.2933,-7.3013,-7.3131,-7.322,-7.3275,-7.3336,-7.3433,-7.3564,-7.3511,-7.3559,-7.3544,-7.3626,-7.3809,-7.3558,-7.3559,-7.3602,-7.4019,-7.4061,-7.4097,-7.3779,-7.3785,-7.379,-7.4013,0,-7.294,-7.3148,-7.3137,-7.3331,-7.3426,-7.3371,-7.3473,-7.3523,-7.3536,-7.3617,-7.3629,-7.3722,-7.3646,-7.3675,-7.3754,-7.377,-7.3892,-7.3753,-7.3868,-7.3872,-7.3855,-7.4135,-7.4181,-7.4391,-7.4042,-7.4047,-7.4051,0,-7.323,-7.3303,-7.3507,-7.3557,-7.3597,-7.3689,-7.3769,-7.3848,-7.3903,-7.3906,-7.396,-7.393,-7.4046,-7.3944,-7.4103,-7.4009,-7.4055,-7.4069,-7.4077,-7.4087,-7.3972,-7.4152,-7.4457,-7.4488,-7.4096,-7.4092,-7.4089,0,-7.3423,-7.3572,-7.3713,-7.3747,-7.381,-7.3876,-7.3904,-7.3953,-7.4007,-7.4076,-7.411,-7.4191,-7.4235,-7.4298,-7.429,-7.4216,-7.4451,-7.4348,-7.4455,-7.4456,-7.4507,-7.4504,-7.4824,-7.4538,-7.4538,-7.4537,-7.4536,0,-7.3674,-7.3801,-7.38,-7.3887,-7.4027,-7.4011,-7.4149,-7.4169,-7.4213,-7.4301,-7.4257,-7.4341,-7.4325,-7.4408,-7.4402,-7.4534,-7.4554,-7.4558,-7.4555,-7.4562,-7.4562,-7.4592,-7.4577,-7.4545,-7.4543,-7.4542,-7.454,0,-7.3913,-7.3918,-7.4068,-7.4115,-7.4129,-7.423,-7.4269,-7.435,-7.4358,-7.447,-7.4495,-7.4508,-7.4602,-7.46,-7.4708,-7.4703,-7.4865,-7.4845,-7.4848,-7.4843,-7.495,-7.494,-7.53,-7.5345,-7.5031,-7.5034,-7.5036,0,-7.4073,-7.4169,-7.4226,-7.4283,-7.4316,-7.4408,-7.4463,-7.445,-7.4508,-7.4577,-7.4649,-7.474,-7.4812,-7.4965,-7.4982,-7.5064,-7.5045,-7.5165,-7.5057,-7.506,-7.5046,-7.504,-7.5049,-7.5187,-7.519,-7.5193,-7.5195,0,-7.4356,-7.4353,-7.4435,-7.4518,-7.4584,-7.4648,-7.4707,-7.4755,-7.4748,-7.4815,-7.4912,-7.4968,-7.5078,-7.5168,-7.5246,-7.5272,-7.5233,-7.5229,-7.5258,-7.5266,-7.5263,-7.5265,-7.4905,-7.5221,-7.5219,-7.5217,-7.5215,-7.5214,-7.456,-7.4642,-7.4695,-7.4787,-7.483,-7.4885,-7.4963,-7.4981,-7.5063,-7.5152,-7.5139,-7.5247,-7.5296,-7.5397,-7.5431,-7.5513,-7.5471,-7.5513,-7.5523,-7.5534,-7.5545,-7.5251,-7.5527,-7.5527,-7.5526,-7.5525,-7.5525,0,-7.4839,-7.487,-7.4955,-7.5039,-7.5111,-7.5068,-7.513,-7.5192,-7.5289,-7.5339,-7.5411,-7.5521,-7.5608,-7.5632,-7.5715,-7.5776,-7.576,-7.5798,-7.5793,-7.58,-7.5579,-7.5546,-7.581,-7.581,-7.581,-7.581,-7.581,-7.581,-7.4993,-7.513,-7.5134,-7.5291,-7.532,-7.5427,-7.5466,-7.5516,-7.5556,-7.5682,-7.5754,-7.577,-7.5809,-7.5894,-7.5971,-7.5975,-7.6007,-7.6053,-7.605,-7.5844,-7.5815,-7.5788,-7.5756,-7.6061,-7.6061,-7.6264,-7.6266,-7.6267]}]]